Location: Praha
(50.0830°N, 14.4670°E)
Time: 05:03:27
(UTC+02:00)

ISS - Pass Details

Date: 11 July 2024
Orbit: 409 x 423 km, 51.6° (Epoch: 24 July)

Event Time Altitude Azimuth Distance (km) Brightness Sun altitude
Rises 02:14:02 0° 286° (WNW) 2,343 0.0 -16.4°
Reaches altitude 10° 02:16:07 10° 285° (WNW) 1,482 -1.0 -16.3°
Maximum altitude 02:19:26 85° 201° (SSW) 419 -3.9 -16.1°
Drops below altitude 10° 02:22:47 10° 109° (ESE) 1,485 -1.0 -16.0°
Sets 02:24:52 0° 109° (ESE) 2,349 0.0 -15.9°
